DW3200 Weather Reports


time (UTC)temp
C
wind
direction
speed
KPH
gust
KPH
rain 1hr
cm
rain 24hr
cm
rain mn
cm
humidity
%
barometer
mb
20260508061517 8 288 0.0 0.0 0.00 0.00 0.00 82 1012.9
20260508060015 8 288 0.0 0.0 0.00 0.00 0.00 81 1012.8
20260508054525 8 288 0.0 0.0 0.00 0.00 0.00 81 1012.8
20260508053053 9 288 0.0 0.0 0.00 0.00 0.00 79 1012.8
20260508051552 10 288 0.0 0.0 0.00 0.00 0.00 78 1012.8
20260508050036 10 288 0.0 0.0 0.00 0.00 0.00 76 1012.7
20260508044528 11 288 0.0 0.0 0.00 0.00 0.00 73 1012.7
20260508043008 11 288 0.0 0.0 0.00 0.00 0.00 72 1012.6
20260508041504 12 288 0.0 0.0 0.00 0.00 0.00 70 1012.5
20260508040053 12 288 0.0 0.0 0.00 0.00 0.00 69 1012.4
20260508034546 13 288 0.0 0.0 0.00 0.00 0.00 66 1012.2
20260508033034 13 288 0.0 0.0 0.00 0.00 0.00 63 1012.0
20260508031531 15 288 0.0 0.0 0.00 0.00 0.00 61 1011.9
20260508030032 16 288 1.6 0.0 0.00 0.00 0.00 54 1011.8
20260508024530 17 288 0.0 0.0 0.00 0.00 0.00 53 1011.6
20260508023030 17 288 3.2 0.0 0.00 0.00 0.00 49 1011.4
20260508021530 18 288 4.8 0.0 0.00 0.00 0.00 47 1011.5
20260508020029 19 288 6.4 0.0 0.00 0.00 0.00 45 1011.5
20260508014529 19 290 8.0 0.0 0.00 0.00 0.00 45 1011.5
20260508013026 20 288 8.0 0.0 0.00 0.00 0.00 45 1011.6
20260508011532 20 269 6.4 0.0 0.00 0.00 0.00 44 1011.7
20260508010020 20 289 8.0 0.0 0.00 0.00 0.00 42 1011.8
20260508004506 20 289 8.0 0.0 0.00 0.00 0.00 38 1011.9
20260508003107 20 294 8.0 0.0 0.00 0.00 0.00 38 1011.9
20260508001548 20 297 11.3 0.0 0.00 0.00 0.00 36 1011.8
20260508000105 20 285 9.7 0.0 0.00 0.00 0.00 37 1011.8
20260507234535 20 280 11.3 0.0 0.00 0.00 0.00 36 1011.8
20260507233034 20 304 8.0 0.0 0.00 0.00 0.00 39 1011.7
20260507231510 20 281 9.7 0.0 0.00 0.00 0.00 37 1011.8
20260507230009 20 276 11.3 0.0 0.00 0.00 0.00 41 1011.8
20260507224552 20 281 11.3 0.0 0.00 0.00 0.00 39 1012.0
20260507223051 21 290 6.4 0.0 0.00 0.00 0.00 40 1012.1
20260507221538 20 283 4.8 0.0 0.00 0.00 0.00 40 1012.2
20260507220038 20 294 9.7 0.0 0.00 0.00 0.00 40 1012.3
20260507214539 20 277 8.0 0.0 0.00 0.00 0.00 37 1012.4
20260507213040 20 294 6.4 0.0 0.00 0.00 0.00 40 1012.5
20260507211546 20 306 6.4 0.0 0.00 0.00 0.00 45 1012.7
20260507210034 20 294 1.6 0.0 0.00 0.00 0.00 46 1012.8
20260507204533 20 303 6.4 0.0 0.00 0.00 0.00 45 1012.8
20260507203035 18 305 6.4 0.0 0.00 0.00 0.00 47 1012.9
20260507201516 19 298 1.6 0.0 0.00 0.00 0.00 46 1013.1
20260507200012 18 285 3.2 0.0 0.00 0.00 0.00 44 1013.1
20260507194558 19 271 9.7 0.0 0.00 0.00 0.00 42 1013.2
20260507193101 18 300 9.7 0.0 0.00 0.00 0.00 43 1013.2
20260507191558 18 310 9.7 0.0 0.00 0.00 0.00 42 1013.2
20260507190055 18 309 8.0 0.0 0.00 0.00 0.00 44 1013.3
20260507184553 17 281 8.0 0.0 0.00 0.00 0.00 41 1013.4
20260507183051 17 314 4.8 0.0 0.00 0.00 0.00 43 1013.3
20260507181550 17 281 3.2 0.0 0.00 0.00 0.00 48 1013.5
20260507180050 16 299 4.8 0.0 0.00 0.00 0.00 43 1013.5
20260507174544 17 291 1.6 0.0 0.00 0.00 0.00 48 1013.4
20260507173029 17 281 1.6 0.0 0.00 0.00 0.00 50 1013.3
20260507171509 16 281 1.6 0.0 0.00 0.00 0.00 53 1013.4
20260507170008 16 289 6.4 0.0 0.00 0.00 0.00 55 1013.7
20260507164553 15 309 4.8 0.0 0.00 0.00 0.00 56 1013.6
20260507163050 16 300 1.6 0.0 0.00 0.00 0.00 55 1013.7
20260507161530 16 300 0.0 0.0 0.00 0.00 0.00 59 1013.7
20260507160037 15 300 0.0 0.0 0.00 0.00 0.00 60 1013.8
20260507154512 13 300 0.0 0.0 0.00 0.00 0.00 66 1013.9
20260507153013 13 300 1.6 0.0 0.00 0.00 0.00 67 1013.9
20260507151558 12 300 3.2 0.0 0.00 0.00 0.00 72 1014.0
20260507150052 12 300 0.0 0.0 0.00 0.00 0.00 77 1014.0
20260507144534 11 300 0.0 0.0 0.00 0.00 0.00 80 1014.0
20260507143033 11 300 0.0 0.0 0.00 0.00 0.00 81 1013.8
20260507141515 11 300 0.0 0.0 0.00 0.00 0.00 84 1013.6
20260507140027 8 300 0.0 0.0 0.00 0.00 0.00 87 1013.5
20260507134501 7 300 0.0 0.0 0.00 0.00 0.00 87 1013.2
20260507133106 7 300 0.0 0.0 0.00 0.00 0.00 86 1013.1
20260507131620 7 300 0.0 0.0 0.00 0.00 0.00 86 1012.9
20260507130105 7 300 0.0 0.0 0.00 0.00 0.00 86 1012.8
20260507124601 6 300 0.0 0.0 0.00 0.00 0.00 86 1012.7
20260507123102 6 300 0.0 0.0 0.00 0.00 0.00 85 1012.6
20260507121554 6 300 0.0 0.0 0.00 0.00 0.00 85 1012.5
20260507120051 7 300 0.0 0.0 0.00 0.00 0.00 85 1012.5
20260507114533 7 300 0.0 0.0 0.00 0.00 0.00 85 1012.3
20260507113100 7 300 1.6 0.0 0.00 0.00 0.00 85 1012.3
20260507111515 7 300 0.0 0.0 0.00 0.00 0.00 87 1012.1
20260507110015 7 300 0.0 0.0 0.00 0.00 0.00 87 1012.2
20260507104606 7 300 0.0 0.0 0.00 0.00 0.00 85 1012.2
20260507103053 8 300 0.0 0.0 0.00 0.00 0.00 86 1012.3
20260507101534 8 300 0.0 0.0 0.00 0.00 0.00 86 1012.4
20260507100042 8 300 0.0 0.0 0.00 0.00 0.00 86 1012.3
20260507094513 8 300 1.6 0.0 0.00 0.00 0.00 86 1012.1
20260507093010 9 300 0.0 0.0 0.00 0.00 0.00 84 1011.9
20260507091550 10 300 0.0 0.0 0.00 0.00 0.00 85 1012.1
20260507090047 10 300 0.0 0.0 0.00 0.00 0.00 85 1011.8
20260507084545 10 300 0.0 0.0 0.00 0.00 0.00 84 1011.9
20260507083027 10 300 0.0 0.0 0.00 0.00 0.00 84 1011.8
20260507081507 11 300 0.0 0.0 0.00 0.00 0.00 84 1011.7
20260507080006 10 300 0.0 0.0 0.00 0.00 0.00 84 1011.7
20260507074548 10 300 0.0 0.0 0.00 0.00 0.00 84 1011.6
20260507073046 11 300 0.0 0.0 0.00 0.00 0.00 83 1011.6
20260507071529 11 300 0.0 0.0 0.00 0.00 0.00 83 1011.5
20260507070026 11 300 0.0 0.0 0.00 0.00 0.00 82 1011.6
20260507064506 11 300 0.0 0.0 0.00 0.00 0.00 81 1011.5
20260507063003 11 300 0.0 0.0 0.00 0.00 0.00 80 1011.4